Data supplied by UK-AIR on 21/1/2015
All Data GMT hour ending 
Status: R =Ratified P=Provisional,P*=As supplied
,,Lullington Heath,,,,,,,,,,,,,,,,,,,,,,,
Date,time,"Nitric oxide",status,unit,"Nitrogen dioxide",status,unit,"Nitrogen oxides as nitrogen dioxide",status,unit,"Ozone",status,unit,"Sulphur dioxide",status,unit
 
01-01-2013,01:00,0.27066,R,ugm-3,1.10798,R,ugm-3,1.52343,R,ugm-3,60.73580,R,ugm-3,1.02888,R,ugm-3
01-01-2013,02:00,0.77894,R,ugm-3,1.73607,R,ugm-3,2.93095,R,ugm-3,59.27229,R,ugm-3,2.03559,R,ugm-3
01-01-2013,03:00,0.54195,R,ugm-3,2.19938,R,ugm-3,3.03031,R,ugm-3,55.82971,R,ugm-3,1.12290,R,ugm-3
01-01-2013,04:00,0.54195,R,ugm-3,2.59670,R,ugm-3,3.42773,R,ugm-3,53.13551,R,ugm-3,0.49160,R,ugm-3
01-01-2013,05:00,0.50796,R,ugm-3,1.45637,R,ugm-3,2.23547,R,ugm-3,54.38283,R,ugm-3,0.84151,R,ugm-3
01-01-2013,06:00,0.50765,R,ugm-3,1.85513,R,ugm-3,2.63289,R,ugm-3,50.54110,R,ugm-3,1.05239,R,ugm-3
01-01-2013,07:00,0.47429,R,ugm-3,2.50203,R,ugm-3,3.22902,R,ugm-3,53.13551,R,ugm-3,0.98254,R,ugm-3
01-01-2013,08:00,0.47397,R,ugm-3,2.10471,R,ugm-3,2.83160,R,ugm-3,51.38928,R,ugm-3,0.70115,R,ugm-3
01-01-2013,09:00,0.57532,R,ugm-3,1.80110,R,ugm-3,2.68257,R,ugm-3,50.64089,R,ugm-3,0.91136,R,ugm-3
01-01-2013,10:00,0.71127,R,ugm-3,2.43700,R,ugm-3,3.52708,R,ugm-3,50.19186,R,ugm-3,1.12290,R,ugm-3
01-01-2013,11:00,0.98225,R,ugm-3,3.46163,R,ugm-3,4.96772,R,ugm-3,51.08992,R,ugm-3,1.19341,R,ugm-3
01-01-2013,12:00,1.18494,R,ugm-3,5.98278,R,ugm-3,7.79932,R,ugm-3,47.64734,R,ugm-3,1.19341,R,ugm-3
01-01-2013,13:00,0.94826,R,ugm-3,3.46402,R,ugm-3,4.91804,R,ugm-3,51.43917,R,ugm-3,1.05239,R,ugm-3
01-01-2013,14:00,0.71127,R,ugm-3,3.03275,R,ugm-3,4.12321,R,ugm-3,55.68003,R,ugm-3,0.84151,R,ugm-3
01-01-2013,15:00,0.67728,R,ugm-3,3.18431,R,ugm-3,4.22256,R,ugm-3,52.03788,R,ugm-3,0.91202,R,ugm-3
01-01-2013,16:00,0.54164,R,ugm-3,4.28591,R,ugm-3,5.11675,R,ugm-3,47.84691,R,ugm-3,1.05239,R,ugm-3
01-01-2013,17:00,0.57563,R,ugm-3,6.02246,R,ugm-3,6.90513,R,ugm-3,43.40648,R,ugm-3,0.98187,R,ugm-3
01-01-2013,18:00,0.67728,R,ugm-3,10.38727,R,ugm-3,11.42575,R,ugm-3,41.51056,R,ugm-3,0.84151,R,ugm-3
01-01-2013,19:00,0.54164,R,ugm-3,9.60171,R,ugm-3,10.43221,R,ugm-3,43.65594,R,ugm-3,0.70115,R,ugm-3
01-01-2013,20:00,0.54164,R,ugm-3,9.20438,R,ugm-3,10.03479,R,ugm-3,42.95744,R,ugm-3,1.12290,R,ugm-3
01-01-2013,21:00,0.60962,R,ugm-3,8.55366,R,ugm-3,9.48834,R,ugm-3,43.85551,R,ugm-3,0.84084,R,ugm-3
01-01-2013,22:00,0.60931,R,ugm-3,6.21945,R,ugm-3,7.15352,R,ugm-3,41.66024,R,ugm-3,0.70115,R,ugm-3
01-01-2013,23:00,0.64330,R,ugm-3,5.12359,R,ugm-3,6.11029,R,ugm-3,45.25250,R,ugm-3,0.63130,R,ugm-3
01-01-2013,24:00,0.67728,R,ugm-3,5.22113,R,ugm-3,6.25933,R,ugm-3,42.75787,R,ugm-3,0.42175,R,ugm-3
02-01-2013,01:00,0.58706,R,ugm-3,4.92851,R,ugm-3,5.82879,R,ugm-3,41.24447,R,ugm-3,0.46832,R,ugm-3
02-01-2013,02:00,0.81293,R,ugm-3,4.46617,R,ugm-3,5.71288,R,ugm-3,40.64576,R,ugm-3,1.12224,R,ugm-3
02-01-2013,03:00,0.50796,R,ugm-3,3.39373,R,ugm-3,4.17288,R,ugm-3,39.11572,R,ugm-3,0.63130,R,ugm-3
02-01-2013,04:00,0.57532,R,ugm-3,3.68778,R,ugm-3,4.57030,R,ugm-3,36.47142,R,ugm-3,0.70115,R,ugm-3
02-01-2013,05:00,0.54164,R,ugm-3,2.39875,R,ugm-3,3.22902,R,ugm-3,37.36948,R,ugm-3,0.42175,R,ugm-3
02-01-2013,06:00,0.54195,R,ugm-3,2.24910,R,ugm-3,3.07999,R,ugm-3,40.11357,R,ugm-3,0.21154,R,ugm-3
02-01-2013,07:00,0.67728,R,ugm-3,2.09036,R,ugm-3,3.12966,R,ugm-3,38.56690,R,ugm-3,0.56145,R,ugm-3
02-01-2013,08:00,0.60931,R,ugm-3,4.38154,R,ugm-3,5.31546,R,ugm-3,32.52991,R,ugm-3,0.63130,R,ugm-3
02-01-2013,09:00,0.91458,R,ugm-3,11.46400,R,ugm-3,12.86639,R,ugm-3,28.33894,R,ugm-3,0.91136,R,ugm-3
02-01-2013,10:00,1.08359,R,ugm-3,13.93782,R,ugm-3,15.59864,R,ugm-3,25.94410,R,ugm-3,0.98187,R,ugm-3
02-01-2013,11:00,1.15126,R,ugm-3,10.75399,R,ugm-3,12.51865,R,ugm-3,30.43443,R,ugm-3,0.42175,R,ugm-3
02-01-2013,12:00,1.25291,R,ugm-3,9.95169,R,ugm-3,11.87285,R,ugm-3,34.07658,R,ugm-3,0.77166,R,ugm-3
02-01-2013,13:00,1.21892,R,ugm-3,12.88547,R,ugm-3,14.75413,R,ugm-3,37.61895,R,ugm-3,1.26393,R,ugm-3
02-01-2013,14:00,0.77863,R,ugm-3,6.55557,R,ugm-3,7.74964,R,ugm-3,53.73422,R,ugm-3,1.26326,R,ugm-3
02-01-2013,15:00,0.71096,R,ugm-3,2.23810,R,ugm-3,3.32837,R,ugm-3,61.46756,R,ugm-3,0.70115,R,ugm-3
02-01-2013,16:00,0.40631,R,ugm-3,3.45111,R,ugm-3,4.07353,R,ugm-3,64.61079,R,ugm-3,0.63130,R,ugm-3
02-01-2013,17:00,0.57532,R,ugm-3,4.03633,R,ugm-3,4.91804,R,ugm-3,67.85380,R,ugm-3,0.77166,R,ugm-3
02-01-2013,18:00,0.44030,R,ugm-3,3.59741,R,ugm-3,4.27224,R,ugm-3,67.05552,R,ugm-3,0.77100,R,ugm-3
02-01-2013,19:00,0.47397,R,ugm-3,3.94310,R,ugm-3,4.66966,R,ugm-3,61.71702,R,ugm-3,0.56145,R,ugm-3
02-01-2013,20:00,0.57594,R,ugm-3,3.19005,R,ugm-3,4.07353,R,ugm-3,59.07272,R,ugm-3,0.35190,R,ugm-3
02-01-2013,21:00,0.71127,R,ugm-3,2.43605,R,ugm-3,3.52708,R,ugm-3,56.57810,R,ugm-3,0.28139,R,ugm-3
02-01-2013,22:00,0.74526,R,ugm-3,4.91799,R,ugm-3,6.06062,R,ugm-3,50.84046,R,ugm-3,0.28139,R,ugm-3
02-01-2013,23:00,0.60962,R,ugm-3,7.70881,R,ugm-3,8.64383,R,ugm-3,45.00304,R,ugm-3,0.56145,R,ugm-3
02-01-2013,24:00,0.64361,R,ugm-3,11.28375,R,ugm-3,12.27027,R,ugm-3,36.97034,R,ugm-3,0.84151,R,ugm-3
03-01-2013,01:00,0.45152,R,ugm-3,6.13658,R,ugm-3,6.82890,R,ugm-3,39.58138,R,ugm-3,0.65458,R,ugm-3
03-01-2013,02:00,0.60931,R,ugm-3,6.52449,R,ugm-3,7.45875,R,ugm-3,34.12647,R,ugm-3,1.33311,R,ugm-3
03-01-2013,03:00,0.43999,R,ugm-3,5.44154,R,ugm-3,6.11618,R,ugm-3,34.07658,R,ugm-3,0.63130,R,ugm-3
03-01-2013,04:00,0.67728,R,ugm-3,3.43676,R,ugm-3,4.47525,R,ugm-3,37.51916,R,ugm-3,0.63130,R,ugm-3
03-01-2013,05:00,0.54195,R,ugm-3,2.00334,R,ugm-3,2.83433,R,ugm-3,45.05293,R,ugm-3,0.84084,R,ugm-3
03-01-2013,06:00,0.23730,R,ugm-3,1.57542,R,ugm-3,1.93928,R,ugm-3,44.80347,R,ugm-3,0.56145,R,ugm-3
03-01-2013,07:00,0.47397,R,ugm-3,2.15730,R,ugm-3,2.88405,R,ugm-3,45.70153,R,ugm-3,0.70115,R,ugm-3
03-01-2013,08:00,0.47397,R,ugm-3,4.39493,R,ugm-3,5.12168,R,ugm-3,42.70798,R,ugm-3,0.42175,R,ugm-3
03-01-2013,09:00,0.54164,R,ugm-3,5.53430,R,ugm-3,6.36480,R,ugm-3,41.56045,R,ugm-3,0.56145,R,ugm-3
03-01-2013,10:00,0.60931,R,ugm-3,7.51899,R,ugm-3,8.45325,R,ugm-3,36.32174,R,ugm-3,0.56145,R,ugm-3
03-01-2013,11:00,0.98225,R,ugm-3,9.73176,R,ugm-3,11.23785,R,ugm-3,35.47357,R,ugm-3,0.56145,R,ugm-3
03-01-2013,12:00,0.94795,R,ugm-3,8.83958,R,ugm-3,10.29308,R,ugm-3,39.16561,R,ugm-3,0.63130,R,ugm-3
03-01-2013,13:00,1.11727,R,ugm-3,10.86730,R,ugm-3,12.58043,R,ugm-3,34.32604,R,ugm-3,0.63130,R,ugm-3
03-01-2013,14:00,1.08328,R,ugm-3,10.07409,R,ugm-3,11.73510,R,ugm-3,35.12432,R,ugm-3,1.12290,R,ugm-3
03-01-2013,15:00,0.81293,R,ugm-3,8.69853,R,ugm-3,9.94500,R,ugm-3,36.62110,R,ugm-3,1.12290,R,ugm-3
03-01-2013,16:00,0.77925,R,ugm-3,11.28614,R,ugm-3,12.48098,R,ugm-3,31.83142,R,ugm-3,1.19341,R,ugm-3
03-01-2013,17:00,0.54164,R,ugm-3,13.04277,R,ugm-3,13.87328,R,ugm-3,30.93335,R,ugm-3,1.26393,R,ugm-3
03-01-2013,18:00,0.57532,R,ugm-3,10.85296,R,ugm-3,11.73510,R,ugm-3,34.22626,R,ugm-3,1.26326,R,ugm-3
03-01-2013,19:00,0.57563,R,ugm-3,7.96843,R,ugm-3,8.85105,R,ugm-3,35.97249,R,ugm-3,0.91202,R,ugm-3
03-01-2013,20:00,0.71096,R,ugm-3,8.65598,R,ugm-3,9.74610,R,ugm-3,33.22841,R,ugm-3,0.56145,R,ugm-3
03-01-2013,21:00,0.50765,R,ugm-3,9.71359,R,ugm-3,10.49198,R,ugm-3,30.63400,R,ugm-3,0.56145,R,ugm-3
03-01-2013,22:00,0.71127,R,ugm-3,9.35165,R,ugm-3,10.44225,R,ugm-3,32.97894,R,ugm-3,0.63130,R,ugm-3
03-01-2013,23:00,0.64361,R,ugm-3,4.78125,R,ugm-3,5.76810,R,ugm-3,38.56690,R,ugm-3,0.49094,R,ugm-3
03-01-2013,24:00,0.50765,R,ugm-3,5.28806,R,ugm-3,6.06645,R,ugm-3,43.75572,R,ugm-3,0.28073,R,ugm-3
04-01-2013,01:00,0.63197,R,ugm-3,3.60570,R,ugm-3,4.57470,R,ugm-3,43.17364,R,ugm-3,0.74771,R,ugm-3
04-01-2013,02:00,0.77894,R,ugm-3,3.92732,R,ugm-3,5.12168,R,ugm-3,38.65006,R,ugm-3,1.05239,R,ugm-3
04-01-2013,03:00,0.40662,R,ugm-3,3.00645,R,ugm-3,3.62993,R,ugm-3,41.66024,R,ugm-3,0.42175,R,ugm-3
04-01-2013,04:00,0.54164,R,ugm-3,2.84915,R,ugm-3,3.67965,R,ugm-3,42.55830,R,ugm-3,0.35190,R,ugm-3
04-01-2013,05:00,0.54164,R,ugm-3,2.79942,R,ugm-3,3.62993,R,ugm-3,46.25035,R,ugm-3,0.49160,R,ugm-3
04-01-2013,06:00,0.43999,R,ugm-3,1.51327,R,ugm-3,2.18790,R,ugm-3,54.23315,R,ugm-3,0.56145,R,ugm-3
04-01-2013,07:00,0.40600,R,ugm-3,1.36648,R,ugm-3,1.98900,R,ugm-3,57.07702,R,ugm-3,0.35124,R,ugm-3
04-01-2013,08:00,0.47429,R,ugm-3,1.85847,R,ugm-3,2.58570,R,ugm-3,55.72992,R,ugm-3,0.42109,R,ugm-3
04-01-2013,09:00,0.64330,R,ugm-3,2.74300,R,ugm-3,3.72938,R,ugm-3,54.28304,R,ugm-3,0.35190,R,ugm-3
04-01-2013,10:00,0.84661,R,ugm-3,4.61917,R,ugm-3,5.91728,R,ugm-3,50.74067,R,ugm-3,0.42175,R,ugm-3
04-01-2013,11:00,0.98194,R,ugm-3,4.71001,R,ugm-3,6.21563,R,ugm-3,51.58885,R,ugm-3,0.35190,R,ugm-3
04-01-2013,12:00,0.67728,R,ugm-3,4.28209,R,ugm-3,5.32058,R,ugm-3,52.93594,R,ugm-3,0.35190,R,ugm-3
04-01-2013,13:00,0.77894,R,ugm-3,4.72292,R,ugm-3,5.91728,R,ugm-3,53.38498,R,ugm-3,0.63130,R,ugm-3
04-01-2013,14:00,0.67728,R,ugm-3,4.48099,R,ugm-3,5.51948,R,ugm-3,52.63659,R,ugm-3,0.56145,R,ugm-3
04-01-2013,15:00,0.71127,R,ugm-3,4.37915,R,ugm-3,5.46975,R,ugm-3,50.34153,R,ugm-3,0.49160,R,ugm-3
04-01-2013,16:00,0.77925,R,ugm-3,5.07052,R,ugm-3,6.26535,R,ugm-3,47.64734,R,ugm-3,0.35190,R,ugm-3
04-01-2013,17:00,0.60962,R,ugm-3,5.23117,R,ugm-3,6.16590,R,ugm-3,46.00089,R,ugm-3,0.63130,R,ugm-3
04-01-2013,18:00,0.60962,R,ugm-3,4.88309,R,ugm-3,5.81783,R,ugm-3,45.15271,R,ugm-3,0.70115,R,ugm-3
04-01-2013,19:00,0.37263,R,ugm-3,6.04207,R,ugm-3,6.61343,R,ugm-3,41.51056,R,ugm-3,0.56079,R,ugm-3
04-01-2013,20:00,0.47366,R,ugm-3,5.73798,R,ugm-3,6.46425,R,ugm-3,40.76217,R,ugm-3,0.42175,R,ugm-3
04-01-2013,21:00,0.57532,R,ugm-3,8.46616,R,ugm-3,9.34830,R,ugm-3,37.66884,R,ugm-3,0.56145,R,ugm-3
04-01-2013,22:00,0.67697,R,ugm-3,8.80754,R,ugm-3,9.84555,R,ugm-3,36.97034,R,ugm-3,0.14036,R,ugm-3
04-01-2013,23:00,0.54164,R,ugm-3,10.35762,R,ugm-3,11.18813,R,ugm-3,32.67959,R,ugm-3,0.49160,R,ugm-3
04-01-2013,24:00,0.67728,R,ugm-3,10.29881,R,ugm-3,11.33730,R,ugm-3,29.08733,R,ugm-3,0.56145,R,ugm-3
05-01-2013,01:00,0.63113,R,ugm-3,9.78308,R,ugm-3,10.75093,R,ugm-3,31.19944,R,ugm-3,0.56145,R,ugm-3
05-01-2013,02:00,0.71034,R,ugm-3,7.77001,R,ugm-3,8.85956,R,ugm-3,32.97894,R,ugm-3,1.19341,R,ugm-3
05-01-2013,03:00,0.67635,R,ugm-3,6.77694,R,ugm-3,7.81433,R,ugm-3,33.47787,R,ugm-3,0.56145,R,ugm-3
05-01-2013,04:00,0.33864,R,ugm-3,3.31341,R,ugm-3,3.83251,R,ugm-3,42.15916,R,ugm-3,0.63130,R,ugm-3
05-01-2013,05:00,0.71034,R,ugm-3,2.49486,R,ugm-3,3.58364,R,ugm-3,44.65379,R,ugm-3,0.28139,R,ugm-3
05-01-2013,06:00,0.64236,R,ugm-3,5.18670,R,ugm-3,6.17183,R,ugm-3,38.66669,R,ugm-3,0.84151,R,ugm-3
05-01-2013,07:00,0.37232,R,ugm-3,4.90413,R,ugm-3,5.47501,R,ugm-3,37.76862,R,ugm-3,1.33444,R,ugm-3
05-01-2013,08:00,0.57501,R,ugm-3,6.28543,R,ugm-3,7.16729,R,ugm-3,33.67744,R,ugm-3,1.05239,R,ugm-3
05-01-2013,09:00,0.47366,R,ugm-3,5.79392,R,ugm-3,6.52024,R,ugm-3,31.43228,R,ugm-3,1.12290,R,ugm-3
05-01-2013,10:00,0.71003,R,ugm-3,3.68921,R,ugm-3,4.77819,R,ugm-3,42.65809,R,ugm-3,0.98187,R,ugm-3
05-01-2013,11:00,0.74464,R,ugm-3,5.47836,R,ugm-3,6.61978,R,ugm-3,45.20261,R,ugm-3,0.91136,R,ugm-3
05-01-2013,12:00,0.57532,R,ugm-3,3.29858,R,ugm-3,4.18092,R,ugm-3,47.39788,R,ugm-3,0.70115,R,ugm-3
05-01-2013,13:00,0.71034,R,ugm-3,3.19148,R,ugm-3,4.28046,R,ugm-3,46.79917,R,ugm-3,0.63130,R,ugm-3
05-01-2013,14:00,0.71003,R,ugm-3,5.87998,R,ugm-3,6.96819,R,ugm-3,43.05723,R,ugm-3,0.49160,R,ugm-3
05-01-2013,15:00,0.74433,R,ugm-3,7.76810,R,ugm-3,8.90933,R,ugm-3,42.40863,R,ugm-3,0.35124,R,ugm-3
05-01-2013,16:00,0.77800,R,ugm-3,7.61701,R,ugm-3,8.80979,R,ugm-3,43.05723,R,ugm-3,0.70115,R,ugm-3
05-01-2013,17:00,0.50765,R,ugm-3,7.53382,R,ugm-3,8.31206,R,ugm-3,42.50841,R,ugm-3,0.63130,R,ugm-3
05-01-2013,18:00,0.54133,R,ugm-3,6.18789,R,ugm-3,7.01797,R,ugm-3,43.25680,R,ugm-3,0.84084,R,ugm-3
05-01-2013,19:00,0.43967,R,ugm-3,8.28495,R,ugm-3,8.95911,R,ugm-3,39.71443,R,ugm-3,0.91136,R,ugm-3
05-01-2013,20:00,0.64267,R,ugm-3,7.77527,R,ugm-3,8.76002,R,ugm-3,37.31959,R,ugm-3,1.12290,R,ugm-3
05-01-2013,21:00,0.50765,R,ugm-3,4.49772,R,ugm-3,5.27592,R,ugm-3,39.96389,R,ugm-3,0.77166,R,ugm-3
05-01-2013,22:00,0.57501,R,ugm-3,7.67917,R,ugm-3,8.56092,R,ugm-3,37.56905,R,ugm-3,0.77166,R,ugm-3
05-01-2013,23:00,0.57501,R,ugm-3,9.42145,R,ugm-3,10.30297,R,ugm-3,34.37593,R,ugm-3,0.77100,R,ugm-3
05-01-2013,24:00,0.60868,R,ugm-3,8.77264,R,ugm-3,9.70570,R,ugm-3,34.22626,R,ugm-3,0.84151,R,ugm-3
06-01-2013,01:00,0.76667,R,ugm-3,9.44265,R,ugm-3,10.61820,R,ugm-3,32.26382,R,ugm-3,0.93486,R,ugm-3
06-01-2013,02:00,0.64267,R,ugm-3,4.78890,R,ugm-3,5.77365,R,ugm-3,40.64576,R,ugm-3,1.33311,R,ugm-3
06-01-2013,03:00,0.43999,R,ugm-3,4.95003,R,ugm-3,5.62433,R,ugm-3,39.61465,R,ugm-3,0.42175,R,ugm-3
06-01-2013,04:00,0.60899,R,ugm-3,5.08868,R,ugm-3,6.02251,R,ugm-3,41.11142,R,ugm-3,0.42109,R,ugm-3
06-01-2013,05:00,0.57532,R,ugm-3,4.89170,R,ugm-3,5.77365,R,ugm-3,40.86196,R,ugm-3,0.42109,R,ugm-3
06-01-2013,06:00,0.44030,R,ugm-3,3.55534,R,ugm-3,4.23069,R,ugm-3,42.55830,R,ugm-3,0.91136,R,ugm-3
06-01-2013,07:00,0.57501,R,ugm-3,3.69734,R,ugm-3,4.57910,R,ugm-3,38.46712,R,ugm-3,0.35124,R,ugm-3
06-01-2013,08:00,0.50765,R,ugm-3,3.75089,R,ugm-3,4.52933,R,ugm-3,36.97034,R,ugm-3,0.42109,R,ugm-3
06-01-2013,09:00,0.64298,R,ugm-3,5.88285,R,ugm-3,6.86865,R,ugm-3,38.86626,R,ugm-3,1.05239,R,ugm-3
06-01-2013,10:00,0.91365,R,ugm-3,5.21873,R,ugm-3,6.61978,R,ugm-3,40.36303,R,ugm-3,1.40363,R,ugm-3
06-01-2013,11:00,1.08235,R,ugm-3,7.10063,R,ugm-3,8.76002,R,ugm-3,36.97034,R,ugm-3,0.84084,R,ugm-3
06-01-2013,12:00,1.65797,R,ugm-3,7.71072,R,ugm-3,10.25320,R,ugm-3,33.82712,R,ugm-3,0.63130,R,ugm-3
06-01-2013,13:00,1.69134,R,ugm-3,8.85488,R,ugm-3,11.44775,R,ugm-3,33.77722,R,ugm-3,0.91269,R,ugm-3
06-01-2013,14:00,1.55663,R,ugm-3,12.29642,R,ugm-3,14.68298,R,ugm-3,33.02884,R,ugm-3,1.12290,R,ugm-3
06-01-2013,15:00,1.01499,R,ugm-3,8.24909,R,ugm-3,9.80524,R,ugm-3,35.12432,R,ugm-3,1.05239,R,ugm-3
06-01-2013,16:00,0.57501,R,ugm-3,8.02772,R,ugm-3,8.90933,R,ugm-3,32.92905,R,ugm-3,1.19341,R,ugm-3
06-01-2013,17:00,0.57501,R,ugm-3,8.07744,R,ugm-3,8.95911,R,ugm-3,32.87916,R,ugm-3,1.19341,R,ugm-3
06-01-2013,18:00,0.67635,R,ugm-3,6.32942,R,ugm-3,7.36638,R,ugm-3,33.37808,R,ugm-3,0.91202,R,ugm-3
06-01-2013,19:00,0.67666,R,ugm-3,4.23810,R,ugm-3,5.27592,R,ugm-3,37.91830,R,ugm-3,0.84084,R,ugm-3
06-01-2013,20:00,0.50765,R,ugm-3,3.55199,R,ugm-3,4.33024,R,ugm-3,41.76002,R,ugm-3,0.98187,R,ugm-3
06-01-2013,21:00,0.60899,R,ugm-3,3.89433,R,ugm-3,4.82796,R,ugm-3,41.36088,R,ugm-3,0.91136,R,ugm-3
06-01-2013,22:00,0.27066,R,ugm-3,2.77073,R,ugm-3,3.18546,R,ugm-3,45.35228,R,ugm-3,0.77166,R,ugm-3
06-01-2013,23:00,0.64267,R,ugm-3,4.24049,R,ugm-3,5.22615,R,ugm-3,42.40863,R,ugm-3,1.40496,R,ugm-3
06-01-2013,24:00,0.64267,R,ugm-3,6.18168,R,ugm-3,7.16729,R,ugm-3,34.57550,R,ugm-3,2.03426,R,ugm-3
07-01-2013,01:00,0.54174,R,ugm-3,7.33189,R,ugm-3,8.16274,R,ugm-3,29.40331,R,ugm-3,1.59033,R,ugm-3
07-01-2013,02:00,0.74401,R,ugm-3,3.28854,R,ugm-3,4.42978,R,ugm-3,28.73808,R,ugm-3,1.19208,R,ugm-3
07-01-2013,03:00,0.37232,R,ugm-3,3.60984,R,ugm-3,4.18092,R,ugm-3,25.39528,R,ugm-3,0.70115,R,ugm-3
07-01-2013,04:00,0.50765,R,ugm-3,4.74635,R,ugm-3,5.52478,R,ugm-3,22.95055,R,ugm-3,0.35190,R,ugm-3
07-01-2013,05:00,0.40568,R,ugm-3,4.20607,R,ugm-3,4.82796,R,ugm-3,27.64045,R,ugm-3,0.35190,R,ugm-3
07-01-2013,06:00,0.37232,R,ugm-3,3.31149,R,ugm-3,3.88228,R,ugm-3,31.08303,R,ugm-3,0.35190,R,ugm-3
07-01-2013,07:00,0.50765,R,ugm-3,2.75591,R,ugm-3,3.53387,R,ugm-3,30.53421,R,ugm-3,0.42109,R,ugm-3
07-01-2013,08:00,0.47397,R,ugm-3,3.20487,R,ugm-3,3.93205,R,ugm-3,29.43658,R,ugm-3,0.35057,R,ugm-3
07-01-2013,09:00,0.77800,R,ugm-3,5.92445,R,ugm-3,7.11751,R,ugm-3,24.59700,R,ugm-3,0.84151,R,ugm-3
07-01-2013,10:00,0.57501,R,ugm-3,5.09108,R,ugm-3,5.97274,R,ugm-3,21.30410,R,ugm-3,0.56145,R,ugm-3
07-01-2013,11:00,0.67635,R,ugm-3,5.53334,R,ugm-3,6.57001,R,ugm-3,21.10453,R,ugm-3,0.49160,R,ugm-3
07-01-2013,12:00,0.57532,R,ugm-3,4.59287,R,ugm-3,5.47501,R,ugm-3,22.35184,R,ugm-3,0.49160,R,ugm-3
07-01-2013,13:00,0.74401,R,ugm-3,3.83648,R,ugm-3,4.97728,R,ugm-3,23.10023,R,ugm-3,0.42109,R,ugm-3
07-01-2013,14:00,0.67666,R,ugm-3,3.34209,R,ugm-3,4.38001,R,ugm-3,25.24561,R,ugm-3,0.49160,R,ugm-3
07-01-2013,15:00,0.54133,R,ugm-3,5.09299,R,ugm-3,5.92297,R,ugm-3,23.64905,R,ugm-3,0.63130,R,ugm-3
07-01-2013,16:00,0.77800,R,ugm-3,5.97465,R,ugm-3,7.16729,R,ugm-3,22.45163,R,ugm-3,0.42175,R,ugm-3
07-01-2013,17:00,0.54133,R,ugm-3,6.08844,R,ugm-3,6.91842,R,ugm-3,23.69894,R,ugm-3,0.49094,R,ugm-3
07-01-2013,18:00,0.60868,R,ugm-3,7.03035,R,ugm-3,7.96365,R,ugm-3,24.74668,R,ugm-3,0.98254,R,ugm-3
07-01-2013,19:00,0.40600,R,ugm-3,4.90174,R,ugm-3,5.52478,R,ugm-3,26.29335,R,ugm-3,0.70115,R,ugm-3
07-01-2013,20:00,0.60868,R,ugm-3,7.67725,R,ugm-3,8.61070,R,ugm-3,25.49507,R,ugm-3,0.91136,R,ugm-3
07-01-2013,21:00,0.47397,R,ugm-3,6.58952,R,ugm-3,7.31660,R,ugm-3,27.39098,R,ugm-3,1.05239,R,ugm-3
07-01-2013,22:00,0.67604,R,ugm-3,7.72363,R,ugm-3,8.76002,R,ugm-3,30.28475,R,ugm-3,0.84151,R,ugm-3
07-01-2013,23:00,0.57501,R,ugm-3,5.63853,R,ugm-3,6.52024,R,ugm-3,40.51271,R,ugm-3,0.91202,R,ugm-3
07-01-2013,24:00,0.67604,R,ugm-3,5.38369,R,ugm-3,6.42069,R,ugm-3,46.99874,R,ugm-3,0.56145,R,ugm-3
08-01-2013,01:00,0.54133,R,ugm-3,4.61678,R,ugm-3,5.44706,R,ugm-3,47.03200,R,ugm-3,0.28206,R,ugm-3
08-01-2013,02:00,0.54164,R,ugm-3,3.75280,R,ugm-3,4.58350,R,ugm-3,47.63071,R,ugm-3,0.84218,R,ugm-3
08-01-2013,03:00,0.40631,R,ugm-3,2.01769,R,ugm-3,2.64049,R,ugm-3,52.18756,R,ugm-3,0.21088,R,ugm-3
08-01-2013,04:00,0.47366,R,ugm-3,2.96007,R,ugm-3,3.68673,R,ugm-3,51.08992,R,ugm-3,0.14103,R,ugm-3
08-01-2013,05:00,0.54133,R,ugm-3,4.05259,R,ugm-3,4.88242,R,ugm-3,48.59530,R,ugm-3,0.28139,R,ugm-3
08-01-2013,06:00,0.47366,R,ugm-3,4.55462,R,ugm-3,5.28099,R,ugm-3,46.40003,R,ugm-3,0.42175,R,ugm-3
08-01-2013,07:00,0.47366,R,ugm-3,3.95696,R,ugm-3,4.68314,R,ugm-3,44.50411,R,ugm-3,0.42175,R,ugm-3
08-01-2013,08:00,0.54133,R,ugm-3,5.84651,R,ugm-3,6.67596,R,ugm-3,42.90755,R,ugm-3,0.49160,R,ugm-3
08-01-2013,09:00,0.77800,R,ugm-3,11.71072,R,ugm-3,12.90354,R,ugm-3,37.86841,R,ugm-3,1.26326,R,ugm-3
08-01-2013,10:00,0.87966,R,ugm-3,7.12072,R,ugm-3,8.46951,R,ugm-3,37.36948,R,ugm-3,0.91136,R,ugm-3
08-01-2013,11:00,1.65766,R,ugm-3,10.61055,R,ugm-3,13.15265,R,ugm-3,28.73808,R,ugm-3,0.77100,R,ugm-3
08-01-2013,12:00,1.18400,R,ugm-3,6.95289,R,ugm-3,8.76843,R,ugm-3,32.97894,R,ugm-3,0.70115,R,ugm-3
08-01-2013,13:00,1.52233,R,ugm-3,8.07840,R,ugm-3,10.41251,R,ugm-3,29.88561,R,ugm-3,0.56145,R,ugm-3
08-01-2013,14:00,1.31964,R,ugm-3,7.59215,R,ugm-3,9.61538,R,ugm-3,32.23056,R,ugm-3,0.77100,R,ugm-3
08-01-2013,15:00,0.81199,R,ugm-3,4.98254,R,ugm-3,6.22758,R,ugm-3,35.47357,R,ugm-3,0.77100,R,ugm-3
08-01-2013,16:00,0.30434,R,ugm-3,6.15921,R,ugm-3,6.62614,R,ugm-3,36.82067,R,ugm-3,0.56145,R,ugm-3
08-01-2013,17:00,0.60868,R,ugm-3,5.74276,R,ugm-3,6.67596,R,ugm-3,36.92045,R,ugm-3,0.49160,R,ugm-3
08-01-2013,18:00,0.50734,R,ugm-3,4.70236,R,ugm-3,5.48027,R,ugm-3,41.06153,R,ugm-3,0.70115,R,ugm-3
08-01-2013,19:00,0.37232,R,ugm-3,8.59621,R,ugm-3,9.16700,R,ugm-3,38.46712,R,ugm-3,0.63130,R,ugm-3
08-01-2013,20:00,0.57501,R,ugm-3,9.97943,R,ugm-3,10.86090,R,ugm-3,35.12432,R,ugm-3,0.49094,R,ugm-3
08-01-2013,21:00,0.50765,R,ugm-3,7.34304,R,ugm-3,8.12076,R,ugm-3,34.17636,R,ugm-3,0.35190,R,ugm-3
08-01-2013,22:00,0.74433,R,ugm-3,8.97249,R,ugm-3,10.11359,R,ugm-3,27.84002,R,ugm-3,0.28139,R,ugm-3
08-01-2013,23:00,0.64267,R,ugm-3,8.53023,R,ugm-3,9.51574,R,ugm-3,27.98969,R,ugm-3,0.07051,R,ugm-3
08-01-2013,24:00,0.54133,R,ugm-3,5.59645,R,ugm-3,6.42686,R,ugm-3,31.93120,R,ugm-3,0.00000,R,ugm-3
09-01-2013,01:00,0.36089,R,ugm-3,8.08159,R,ugm-3,8.63558,R,ugm-3,28.87113,R,ugm-3,0.18804,R,ugm-3
09-01-2013,02:00,0.77800,R,ugm-3,4.18790,R,ugm-3,5.38063,R,ugm-3,32.82927,R,ugm-3,1.05372,R,ugm-3
09-01-2013,03:00,0.54133,R,ugm-3,5.14845,R,ugm-3,5.97848,R,ugm-3,31.93120,R,ugm-3,0.28139,R,ugm-3
09-01-2013,04:00,0.54102,R,ugm-3,5.44776,R,ugm-3,6.27740,R,ugm-3,30.43443,R,ugm-3,0.49160,R,ugm-3
09-01-2013,05:00,0.50765,R,ugm-3,4.45278,R,ugm-3,5.23117,R,ugm-3,30.18496,R,ugm-3,0.42175,R,ugm-3
09-01-2013,06:00,0.43999,R,ugm-3,4.55653,R,ugm-3,5.23117,R,ugm-3,29.78582,R,ugm-3,0.42175,R,ugm-3
09-01-2013,07:00,0.37201,R,ugm-3,5.65718,R,ugm-3,6.22758,R,ugm-3,28.93765,R,ugm-3,0.84351,R,ugm-3
09-01-2013,08:00,0.60868,R,ugm-3,6.88835,R,ugm-3,7.82184,R,ugm-3,26.64260,R,ugm-3,0.56212,R,ugm-3
09-01-2013,09:00,0.71065,R,ugm-3,9.52234,R,ugm-3,10.61179,R,ugm-3,23.44948,R,ugm-3,1.12357,R,ugm-3
09-01-2013,10:00,1.31933,R,ugm-3,9.53573,R,ugm-3,11.55839,R,ugm-3,20.75528,R,ugm-3,1.12290,R,ugm-3
09-01-2013,11:00,2.87565,R,ugm-3,15.81781,R,ugm-3,20.22717,R,ugm-3,12.22366,R,ugm-3,1.05305,R,ugm-3
09-01-2013,12:00,3.78867,R,ugm-3,20.79509,R,ugm-3,26.60421,R,ugm-3,13.12173,R,ugm-3,1.26459,R,ugm-3
09-01-2013,13:00,2.80798,R,ugm-3,18.11377,R,ugm-3,22.41928,R,ugm-3,20.50582,R,ugm-3,1.33444,R,ugm-3
09-01-2013,14:00,1.48834,R,ugm-3,13.81016,R,ugm-3,16.09206,R,ugm-3,28.63830,R,ugm-3,0.91335,R,ugm-3
09-01-2013,15:00,1.15032,R,ugm-3,12.18597,R,ugm-3,13.94978,R,ugm-3,33.17851,R,ugm-3,0.84351,R,ugm-3
09-01-2013,16:00,0.81199,R,ugm-3,10.81136,R,ugm-3,12.05659,R,ugm-3,36.42153,R,ugm-3,0.70248,R,ugm-3
09-01-2013,17:00,0.74464,R,ugm-3,14.25291,R,ugm-3,15.39457,R,ugm-3,31.83142,R,ugm-3,1.19341,R,ugm-3
09-01-2013,18:00,0.91365,R,ugm-3,18.27824,R,ugm-3,19.67915,R,ugm-3,22.35184,R,ugm-3,1.40496,R,ugm-3
09-01-2013,19:00,1.04867,R,ugm-3,18.66935,R,ugm-3,20.27699,R,ugm-3,19.60775,R,ugm-3,1.47547,R,ugm-3
09-01-2013,20:00,0.87997,R,ugm-3,14.79319,R,ugm-3,16.14188,R,ugm-3,32.13077,R,ugm-3,1.40496,R,ugm-3
09-01-2013,21:00,0.74401,R,ugm-3,13.00787,R,ugm-3,14.14906,R,ugm-3,27.74023,R,ugm-3,1.19408,R,ugm-3
09-01-2013,22:00,1.01530,R,ugm-3,17.37554,R,ugm-3,18.93184,R,ugm-3,22.50152,R,ugm-3,1.12290,R,ugm-3
09-01-2013,23:00,0.94701,R,ugm-3,17.62943,R,ugm-3,19.08130,R,ugm-3,20.65550,R,ugm-3,1.19408,R,ugm-3
09-01-2013,24:00,0.91334,R,ugm-3,20.42072,R,ugm-3,21.82143,R,ugm-3,15.61635,R,ugm-3,1.26393,R,ugm-3
10-01-2013,01:00,1.08266,R,ugm-3,15.74434,R,ugm-3,17.40401,R,ugm-3,17.42911,R,ugm-3,0.28117,R,ugm-3
10-01-2013,02:00,1.21830,R,ugm-3,19.20628,R,ugm-3,21.07412,R,ugm-3,13.83685,R,ugm-3,0.21154,R,ugm-3
10-01-2013,03:00,0.94732,R,ugm-3,22.85963,R,ugm-3,24.31247,R,ugm-3,14.01979,R,ugm-3,0.56145,R,ugm-3
10-01-2013,04:00,0.87966,R,ugm-3,17.73222,R,ugm-3,19.08130,R,ugm-3,20.75528,R,ugm-3,0.56145,R,ugm-3
10-01-2013,05:00,0.74401,R,ugm-3,10.26821,R,ugm-3,11.40892,R,ugm-3,32.43013,R,ugm-3,0.56212,R,ugm-3
10-01-2013,06:00,0.81199,R,ugm-3,8.32081,R,ugm-3,9.56556,R,ugm-3,34.67529,R,ugm-3,0.98320,R,ugm-3
10-01-2013,07:00,0.81199,R,ugm-3,9.01792,R,ugm-3,10.26305,R,ugm-3,36.12217,R,ugm-3,0.84351,R,ugm-3
10-01-2013,08:00,0.84598,R,ugm-3,11.40711,R,ugm-3,12.70426,R,ugm-3,32.87916,R,ugm-3,1.40496,R,ugm-3
10-01-2013,09:00,0.67635,R,ugm-3,8.17976,R,ugm-3,9.21682,R,ugm-3,40.36303,R,ugm-3,1.89722,R,ugm-3
10-01-2013,10:00,0.84598,R,ugm-3,6.82380,R,ugm-3,8.12076,R,ugm-3,40.16346,R,ugm-3,2.03758,R,ugm-3
10-01-2013,11:00,0.98131,R,ugm-3,5.76906,R,ugm-3,7.27381,R,ugm-3,35.22411,R,ugm-3,1.82737,R,ugm-3
10-01-2013,12:00,1.52264,R,ugm-3,15.84984,R,ugm-3,18.18453,R,ugm-3,29.18711,R,ugm-3,2.66955,R,ugm-3
10-01-2013,13:00,1.89465,R,ugm-3,14.73103,R,ugm-3,17.63650,R,ugm-3,31.38238,R,ugm-3,3.23166,R,ugm-3
10-01-2013,14:00,1.96200,R,ugm-3,15.47452,R,ugm-3,18.48345,R,ugm-3,29.03744,R,ugm-3,2.45867,R,ugm-3
10-01-2013,15:00,1.59000,R,ugm-3,17.34064,R,ugm-3,19.77879,R,ugm-3,25.79442,R,ugm-3,2.80925,R,ugm-3
10-01-2013,16:00,1.21799,R,ugm-3,18.26007,R,ugm-3,20.12753,R,ugm-3,25.89421,R,ugm-3,2.74006,R,ugm-3
10-01-2013,17:00,1.01499,R,ugm-3,18.62106,R,ugm-3,20.17735,R,ugm-3,24.74668,R,ugm-3,2.03692,R,ugm-3
10-01-2013,18:00,1.01468,R,ugm-3,23.50367,R,ugm-3,25.05977,R,ugm-3,18.51012,R,ugm-3,2.17728,R,ugm-3
10-01-2013,19:00,1.48865,R,ugm-3,37.07573,R,ugm-3,39.35829,R,ugm-3,5.33850,R,ugm-3,3.16115,R,ugm-3
10-01-2013,20:00,1.86097,R,ugm-3,38.34802,R,ugm-3,41.20166,R,ugm-3,5.33850,R,ugm-3,4.63662,R,ugm-3
10-01-2013,21:00,2.06397,R,ugm-3,41.62413,R,ugm-3,44.78874,R,ugm-3,2.84387,R,ugm-3,6.67287,R,ugm-3
10-01-2013,22:00,2.09734,R,ugm-3,43.11731,R,ugm-3,46.33318,R,ugm-3,2.14538,R,ugm-3,5.47879,R,ugm-3
10-01-2013,23:00,1.69196,R,ugm-3,42.44363,R,ugm-3,45.03785,R,ugm-3,6.58581,R,ugm-3,3.51239,R,ugm-3
10-01-2013,24:00,1.45498,R,ugm-3,39.66812,R,ugm-3,41.89915,R,ugm-3,8.63140,R,ugm-3,1.40496,R,ugm-3